Location: Boiro
(42.6475°N, 8.8834°W)
Time: 19:30:06
(UTC+01:00)

Transit 4A - All Passes

Search period start: 06 December 2021 00:00
Search period end: 16 December 2021 00:00
Orbit: 866 x 978 km, 66.8° (Epoch: 05 December)

Date Brightness Start Highest point End Pass type
(mag) Time Alt. Az. Time Alt. Az. Time Alt. Az.
06 Dec - 02:45:57 10° N 02:48:18 12° NNE 02:50:41 10° NE night (unlit)
06 Dec - 04:30:27 10° NNW 04:36:25 43° NE 04:42:27 10° ESE visible
06 Dec - 06:17:01 10° NW 06:22:42 37° WSW 06:28:27 10° S visible
06 Dec - 19:38:12 10° S 19:43:45 46° ESE 19:49:27 10° NE visible
06 Dec - 21:25:00 10° WSW 21:30:16 33° NW 21:35:42 10° NNE visible
07 Dec - 02:54:32 10° N 02:58:09 16° NE 03:01:48 10° ENE night (unlit)
07 Dec - 04:39:37 10° NNW 04:45:51 61° NE 04:52:09 10° SE visible
07 Dec - 06:26:47 10° NW 06:31:46 25° WSW 06:36:49 10° SSW visible
07 Dec - 19:47:07 10° SSW 19:52:56 69° ESE 19:58:56 10° NE visible
07 Dec - 21:35:05 10° W 21:39:51 24° NW 21:44:44 10° NNE visible
08 Dec - 03:03:24 10° N 03:07:55 20° NE 03:12:29 10° E night (unlit)
08 Dec - 04:48:52 10° NNW 04:55:12 85° ENE 05:01:36 10° SSE visible
08 Dec - 06:37:00 10° WNW 06:40:47 17° WSW 06:44:36 10° SW visible
08 Dec - 18:13:23 10° SE 18:16:41 16° ESE 18:20:02 10° ENE daylight
08 Dec - 19:56:19 10° SSW 20:02:11 82° WNW 20:08:16 10° NNE visible
08 Dec - 21:45:28 10° W 21:49:32 19° NW 21:53:42 10° N visible
09 Dec - 03:12:22 10° NNW 03:17:35 27° NE 03:22:51 10° E night (unlit)
09 Dec - 04:58:13 10° NW 05:04:28 68° WSW 05:10:48 10° SSE visible
09 Dec - 06:49:00 10° W 06:49:43 10° W 06:50:26 10° WSW visible
09 Dec - 18:21:06 10° SSE 18:25:40 24° ESE 18:30:19 10° NE daylight
09 Dec - 20:05:46 10° SW 20:11:32 57° NW 20:17:31 10° NNE visible
09 Dec - 21:56:10 10° WNW 21:59:19 14° NNW 22:02:30 10° N visible
10 Dec - 01:37:47 10° NNE 01:38:47 10° NNE 01:39:47 10° NE night (unlit)
10 Dec - 03:21:25 10° NNW 03:27:09 36° NE 03:32:57 10° ESE night (unlit)
10 Dec - 05:07:40 10° NW 05:13:40 47° WSW 05:19:43 10° S visible
10 Dec - 18:29:26 10° S 18:34:43 36° ESE 18:40:08 10° NE visible
10 Dec - 20:15:27 10° WSW 20:20:59 40° NW 20:26:42 10° NNE visible
10 Dec - 22:07:27 10° NW 22:09:10 11° NNW 22:10:55 10° N visible
11 Dec - 01:45:47 10° N 01:48:41 13° NNE 01:51:35 10° ENE night (unlit)
11 Dec - 03:30:33 10° NNW 03:36:38 49° NE 03:42:48 10° SE night (unlit)
11 Dec - 05:17:18 10° NW 05:22:48 32° WSW 05:28:20 10° S night (unlit)
11 Dec - 18:38:10 10° S 18:43:50 54° ESE 18:49:42 10° NE visible
11 Dec - 20:25:23 10° WSW 20:30:30 30° NW 20:35:48 10° NNE visible
12 Dec - 01:54:30 10° N 01:58:30 17° NE 02:02:30 10° ENE night (unlit)
12 Dec - 03:39:45 10° NNW 03:46:02 69° ENE 03:52:25 10° SE night (unlit)
12 Dec - 05:27:12 10° WNW 05:31:51 22° WSW 05:36:32 10° SSW night (unlit)
12 Dec - 17:06:03 10° ESE 17:07:47 11° E 17:09:31 10° E daylight
12 Dec - 18:47:11 10° SSW 18:53:03 79° ESE 18:59:07 10° NNE visible
12 Dec - 20:35:34 10° W 20:40:08 22° NW 20:44:49 10° N visible
13 Dec - 02:03:25 10° N 02:08:13 22° NE 02:13:04 10° E night (unlit)
13 Dec - 03:49:02 10° NNW 03:55:22 85° WSW 04:01:46 10° SSE night (unlit)
13 Dec - 05:37:41 10° WNW 05:40:50 14° WSW 05:44:00 10° SW night (unlit)
13 Dec - 17:12:51 10° SE 17:16:42 18° ESE 17:20:38 10° ENE daylight
13 Dec - 18:56:28 10° SW 19:02:21 72° WNW 19:08:26 10° NNE visible
13 Dec - 20:46:03 10° WNW 20:49:51 17° NW 20:53:43 10° N visible
14 Dec - 02:12:25 10° NNW 02:17:51 29° NE 02:23:20 10° ESE night (unlit)
14 Dec - 03:58:24 10° NW 04:04:37 60° WSW 04:10:53 10° SSE night (unlit)
14 Dec - 17:20:51 10° SSE 17:25:43 28° ESE 17:30:42 10° NE daylight
14 Dec - 19:06:00 10° SW 19:11:43 51° NW 19:17:39 10° NNE visible
14 Dec - 20:56:54 10° WNW 20:59:39 13° NNW 21:02:26 10° N visible
15 Dec - 00:37:15 10° N 00:39:10 11° NNE 00:41:06 10° NE night (unlit)
15 Dec - 02:21:30 10° NNW 02:27:24 40° NE 02:33:21 10° ESE night (unlit)
15 Dec - 04:07:56 10° NW 04:13:47 41° WSW 04:19:41 10° S night (unlit)
15 Dec - 17:29:20 10° S 17:34:48 41° ESE 17:40:25 10° NE daylight
15 Dec - 19:15:47 10° WSW 19:21:12 36° NW 19:26:48 10° NNE visible
15 Dec - 21:08:40 10° NNW 21:09:33 10° NNW 21:10:26 10° NNW visible
